{"data":{"norad_id":59797,"intl_designator":"2024-093R","name":"STARLINK-31907","alt_names":[],"object_type":"PAYLOAD","status":"ACTIVE","operator":null,"country":"US","launch_date":"2024-05-18","launch_site_code":"AFETR","launch_vehicle":null,"mission":null,"orbit_class":"UNKNOWN","rcs_meters":null,"size_class":null,"mass_kg":null,"dimensions":null,"purposes":["comms"],"wikipedia_slug":null,"has_3d_model":false,"image_url":null,"decayed_at":null,"tle_current":{"epoch":"2026-05-24T11:07:59.333952Z","epoch_age_seconds":128143,"freshness":"FRESH","line1":"1 59797U 24093R   26144.46388118  .00000408  00000+0  24354-4 0  9994","line2":"2 59797  43.0016 140.9992 0001139 266.1313  93.9409 15.27577789114281","mean_motion":15.27577789,"eccentricity":0.0001139,"inclination_deg":43.0016,"raan_deg":140.9992,"arg_perigee_deg":266.1313,"mean_anomaly_deg":93.9409,"bstar":2.4354e-5,"rev_number":11428,"period_min":94.266885154351,"perigee_km":482.27422672662,"apogee_km":483.83720642746,"semimajor_km":6861.192716577,"source":"CELESTRAK","updated_at":"2026-05-25T13:38:19.082937Z"}}}